Naples, FL

11:12 PM EDT on April 23, 2018 (GMT -0400)
Naples Municipal

Weather History for KAPF - October, 2013

Change the Weather History Date:

Tuesday, October 8, 2013

  Actual Average Record
Temperature  
Mean Temperature 80 °F 80 °F  
Max Temperature 85 °F 88 °F 93 °F (1949)
Min Temperature 75 °F 72 °F 61 °F (1964)
Degree Days  
Heating Degree Days 0 0  
Month to date heating degree days 0 0  
Since 1 July heating degree days 0 0  
Cooling Degree Days 15 15  
Month to date cooling degree days 130 124  
Year to date cooling degree days 3330 3301  
Growing Degree Days 30 (Base 50)    
Moisture  
Dew Point 72 °F    
Average Humidity 72    
Maximum Humidity 82    
Minimum Humidity 62    
Precipitation  
Precipitation 0.00 in 0.18 in 2.05 in (1956)
Month to date precipitation 1.24 1.58  
Year to date precipitation 48.22 45.79  
Snow  
Snow 0.00 in - - ()
Month to date snowfall 0.0  
Since 1 July snowfall 0.0  
Since 1 September snowfall 0.0  
Snow Depth 0.00 in    
Sea Level Pressure  
Sea Level Pressure 29.90 in    
Wind  
Wind Speed 7 mph (West)    
Max Wind Speed 14 mph    
Max Gust Speed 17 mph    
Visibility 10 miles    
Events      
T = Trace of Precipitation, MM = Missing Value Source: NWS Daily Summary

Daily Weather History Graph

Daily Weather History Graph

Search for Another Location

Airport or City:

Astronomy

Oct. 08, 2013 Rise Set
Actual Time 7:22 AM EDT 7:05 PM EDT
Civil Twilight 6:59 AM EDT 7:29 PM EDT
Nautical Twilight 6:32 AM EDT 7:55 PM EDT
Astronomical Twilight 6:06 AM EDT 8:22 PM EDT
Moon 10:54 AM EDT (10/8) 10:02 PM EDT (10/8)
Length of Visible Light 12h 29m
Length of Day
11h 43m
Waxing Crescent, 16% of the Moon is Illuminated
Oct 8
Waxing Crescent
Oct 11
First Quarter
Oct 18
Full
Oct 26
Last Quarter
Nov 3
New

Hourly Weather History & Observations

Time (EDT) Temp. Heat Index Dew Point Humidity Pressure Visibility Wind Dir Wind Speed Gust Speed Precip Events Conditions
12:53 AM 81.0 °F 86.2 °F 73.9 °F 79% 29.86 in 10.0 mi West 8.1 mph - N/A   Clear
1:53 AM 81.0 °F 85.8 °F 73.0 °F 77% 29.86 in 10.0 mi West 8.1 mph - N/A   Clear
2:53 AM 80.1 °F 84.2 °F 73.0 °F 79% 29.86 in 10.0 mi West 8.1 mph - N/A   Partly Cloudy
3:53 AM 80.1 °F 84.2 °F 73.0 °F 79% 29.86 in 10.0 mi West 8.1 mph - N/A   Partly Cloudy
4:53 AM 80.1 °F 84.2 °F 73.0 °F 79% 29.85 in 10.0 mi West 4.6 mph - N/A   Partly Cloudy
5:53 AM 80.1 °F 83.8 °F 72.0 °F 76% 29.87 in 10.0 mi West 5.8 mph - N/A   Clear
6:53 AM 79.0 °F - 72.0 °F 79% 29.88 in 10.0 mi West 4.6 mph - N/A   Partly Cloudy
7:53 AM 79.0 °F - 72.0 °F 79% 29.89 in 10.0 mi WSW 3.5 mph - N/A   Clear
8:53 AM 82.0 °F 87.4 °F 73.0 °F 74% 29.91 in 10.0 mi West 4.6 mph - N/A   Partly Cloudy
9:21 AM 82.4 °F 88.2 °F 73.4 °F 74% 29.92 in 10.0 mi West 6.9 mph - N/A   Mostly Cloudy
9:39 AM 82.4 °F 88.2 °F 73.4 °F 74% 29.92 in 10.0 mi West 5.8 mph - N/A   Scattered Clouds
9:53 AM 82.9 °F 88.8 °F 73.0 °F 72% 29.93 in 10.0 mi West 9.2 mph - N/A   Mostly Cloudy
10:53 AM 84.0 °F 90.2 °F 73.0 °F 69% 29.93 in 10.0 mi WNW 10.4 mph - N/A   Scattered Clouds
11:53 AM 84.9 °F 90.7 °F 72.0 °F 65% 29.93 in 10.0 mi WNW 11.5 mph - N/A   Clear
12:53 PM 84.0 °F 89.6 °F 72.0 °F 67% 29.92 in 10.0 mi NW 9.2 mph - N/A   Scattered Clouds
1:53 PM 84.9 °F 90.7 °F 72.0 °F 65% 29.91 in 10.0 mi WNW 11.5 mph - N/A   Clear
2:53 PM 84.0 °F 89.6 °F 72.0 °F 67% 29.89 in 10.0 mi West 9.2 mph - N/A   Clear
3:53 PM 84.9 °F 90.7 °F 72.0 °F 65% 29.89 in 10.0 mi West 10.4 mph - N/A   Scattered Clouds
4:53 PM 84.0 °F 89.6 °F 72.0 °F 67% 29.89 in 10.0 mi West 12.7 mph - N/A   Clear
5:53 PM 82.9 °F 88.0 °F 72.0 °F 69% 29.90 in 10.0 mi West 9.2 mph - N/A   Clear
6:53 PM 81.0 °F 84.9 °F 71.1 °F 72% 29.91 in 10.0 mi West 5.8 mph - N/A   Partly Cloudy
7:53 PM 81.0 °F 84.1 °F 69.1 °F 67% 29.92 in 10.0 mi West 6.9 mph - N/A   Scattered Clouds
8:53 PM 80.1 °F 82.3 °F 66.9 °F 64% 29.93 in 10.0 mi West 8.1 mph - N/A   Clear
9:53 PM 79.0 °F - 66.0 °F 64% 29.94 in 10.0 mi West 3.5 mph - N/A   Clear
10:53 PM 77.0 °F - 68.0 °F 74% 29.95 in 10.0 mi West 3.5 mph - N/A   Clear
11:53 PM 75.9 °F - 69.1 °F 79% 29.94 in 10.0 mi Calm Calm - N/A   Clear